QPF
0.00 0.00 0.00 0.01 0.02 0.02 0.01 0.01 0.01 0.02 0.04 0.04 0.02 0.02 0.03 0.02 0.02 0.03 0.01 0.00 0.00 0.00 0.01 0.01 0.01 0.01 0.00 0.00 0.00 0.00 0.00 0.00 0.00 0.00 0.00 0.00 0.00 0.00 0.00 0.00 0.01 0.01 0.01 0.01 0.01 0.01 0.01 0.01 0.00
0.00 0.00 0.00 0.01 0.02 0.01 0.01 0.01 0.01 0.02 0.04 0.04 0.03 0.02 0.02 0.01 0.01 0.01 0.00 0.00 0.00 0.00 0.00 0.00 0.01 0.01 0.00 0.00 0.00 0.00 0.00 0.00 0.00 0.00 0.00 0.00 0.00 0.00 0.01 0.01 0.01 0.01 0.01 0.01 0.01 0.01 0.01 0.01 0.01
0.00 0.00 0.01 0.02 0.02 0.00 0.01 0.01 0.02 0.02 0.03 0.04 0.03 0.02 0.01 0.01 0.01 0.00 0.00 0.00 0.00 0.00 0.00 0.00 0.01 0.00 0.00 0.00 0.00 0.00 0.00 0.00 0.00 0.00 0.00 0.00 0.01 0.00 0.01 0.01 0.02 0.01 0.01 0.01 0.01 0.01 0.01 0.01 0.02
0.00 0.00 0.01 0.02 0.01 0.00 0.00 0.01 0.01 0.03 0.03 0.03 0.03 0.02 0.01 0.00 0.00 0.01 0.01 0.01 0.01 0.01 0.01 0.01 0.01 0.01 0.01 0.00 0.00 0.00 0.00 0.00 0.00 0.00 0.01 0.01 0.00 0.00 0.01 0.01 0.02 0.02 0.01 0.01 0.01 0.00 0.01 0.01 0.01
0.00 0.00 0.01 0.01 0.00 0.00 0.00 0.00 0.01 0.03 0.05 0.03 0.04 0.03 0.02 0.01 0.01 0.02 0.03 0.03 0.02 0.04 0.04 0.03 0.02 0.02 0.01 0.00 0.01 0.01 0.00 0.00 0.00 0.00 0.01 0.00 0.00 0.01 0.01 0.01 0.01 0.01 0.01 0.00 0.01 0.01 0.01 0.01 0.01
0.00 0.00 0.00 0.00 0.00 0.00 0.00 0.00 0.01 0.02 0.03 0.01 0.03 0.05 0.03 0.02 0.01 0.02 0.03 0.04 0.04 0.07 0.08 0.04 0.04 0.03 0.02 0.01 0.01 0.00 0.00 0.00 0.00 0.00 0.01 0.01 0.01 0.01 0.01 0.01 0.01 0.01 0.01 0.01 0.01 0.01 0.00 0.01 0.01
0.00 0.00 0.00 0.00 0.00 0.00 0.00 0.00 0.00 0.01 0.01 0.01 0.01 0.02 0.03 0.02 0.02 0.03 0.03 0.03 0.03 0.05 0.07 0.06 0.04 0.03 0.04 0.03 0.03 0.02 0.01 0.01 0.01 0.01 0.01 0.01 0.01 0.01 0.01 0.01 0.01 0.00 0.01 0.01 0.01 0.01 0.01 0.01 0.01
0.00 0.00 0.00 0.00 0.00 0.00 0.00 0.00 0.00 0.01 0.01 0.00 0.00 0.01 0.01 0.01 0.03 0.05 0.07 0.07 0.06 0.06 0.06 0.06 0.06 0.04 0.03 0.03 0.03 0.03 0.02 0.02 0.01 0.01 0.01 0.01 0.02 0.01 0.01 0.01 0.01 0.01 0.01 0.01 0.01 0.01 0.01 0.01 0.02
0.00 0.00 0.00 0.00 0.00 0.00 0.00 0.00 0.01 0.01 0.00 0.00 0.00 0.00 0.01 0.02 0.03 0.07 0.09 0.08 0.08 0.08 0.07 0.07 0.07 0.06 0.03 0.02 0.03 0.03 0.04 0.02 0.02 0.01 0.02 0.02 0.01 0.01 0.01 0.01 0.01 0.01 0.01 0.02 0.02 0.02 0.02 0.01 0.02
0.00 0.00 0.00 0.00 0.00 0.00 0.00 0.00 0.00 0.00 0.01 0.01 0.01 0.00 0.01 0.02 0.04 0.07 0.08 0.10 0.13 0.13 0.12 0.09 0.06 0.05 0.04 0.02 0.02 0.03 0.03 0.03 0.02 0.02 0.02 0.01 0.01 0.01 0.01 0.02 0.03 0.02 0.02 0.02 0.02 0.02 0.02 0.01 0.01
0.00 0.00 0.00 0.00 0.00 0.00 0.00 0.00 0.00 0.00 0.00 0.00 0.00 0.00 0.01 0.03 0.05 0.07 0.09 0.12 0.19 0.24 0.26 0.17 0.10 0.08 0.06 0.04 0.02 0.02 0.02 0.02 0.01 0.01 0.02 0.01 0.01 0.01 0.02 0.02 0.04 0.04 0.03 0.02 0.01 0.01 0.00 0.01 0.01
0.00 0.00 0.00 0.00 0.00 0.00 0.00 0.00 0.00 0.00 0.00 0.00 0.00 0.00 0.01 0.02 0.04 0.06 0.11 0.16 0.29 0.28 0.27 0.23 0.15 0.10 0.08 0.07 0.05 0.03 0.02 0.01 0.01 0.01 0.01 0.01 0.01 0.01 0.01 0.02 0.04 0.04 0.03 0.01 0.01 0.01 0.01 0.01 0.01
0.00 0.00 0.00 0.00 0.00 0.00 0.00 0.00 0.00 0.00 0.00 0.00 0.01 0.01 0.02 0.02 0.04 0.06 0.10 0.13 0.29 0.29 0.20 0.20 0.13 0.09 0.08 0.08 0.07 0.05 0.03 0.02 0.02 0.01 0.01 0.01 0.01 0.03 0.02 0.02 0.03 0.03 0.03 0.02 0.02 0.02 0.02 0.02 0.01
0.00 0.00 0.00 0.00 0.00 0.00 0.00 0.00 0.00 0.00 0.00 0.00 0.01 0.02 0.03 0.04 0.06 0.08 0.12 0.18 0.26 0.27 0.21 0.18 0.13 0.10 0.08 0.07 0.07 0.06 0.03 0.02 0.02 0.02 0.03 0.02 0.02 0.03 0.03 0.03 0.03 0.02 0.02 0.01 0.01 0.02 0.02 0.02 0.02
0.00 0.00 0.00 0.00 0.00 0.00 0.00 0.00 0.00 0.00 0.00 0.00 0.01 0.03 0.06 0.06 0.09 0.11 0.14 0.21 0.32 0.31 0.25 0.21 0.14 0.11 0.10 0.08 0.07 0.05 0.04 0.04 0.03 0.03 0.03 0.03 0.03 0.02 0.02 0.03 0.04 0.03 0.02 0.01 0.01 0.02 0.01 0.01 0.02
0.00 0.00 0.00 0.00 0.00 0.01 0.01 0.01 0.01 0.00 0.00 0.01 0.02 0.03 0.06 0.08 0.11 0.15 0.18 0.25 0.36 0.43 0.37 0.30 0.17 0.11 0.14 0.11 0.07 0.05 0.05 0.05 0.04 0.03 0.02 0.03 0.04 0.02 0.03 0.03 0.02 0.02 0.02 0.01 0.01 0.01 0.01 0.01 0.01
0.00 0.00 0.00 0.00 0.00 0.01 0.01 0.01 0.01 0.00 0.01 0.02 0.03 0.04 0.07 0.08 0.11 0.16 0.19 0.26 0.31 0.35 0.36 0.29 0.22 0.16 0.15 0.14 0.11 0.10 0.10 0.08 0.06 0.04 0.03 0.03 0.04 0.03 0.02 0.02 0.01 0.01 0.01 0.01 0.01 0.01 0.01 0.01 0.01
0.00 0.00 0.00 0.00 0.00 0.01 0.01 0.01 0.01 0.01 0.01 0.02 0.03 0.04 0.06 0.07 0.09 0.12 0.14 0.22 0.31 0.36 0.37 0.31 0.24 0.19 0.17 0.16 0.16 0.14 0.13 0.09 0.05 0.03 0.02 0.02 0.03 0.03 0.02 0.02 0.01 0.00 0.01 0.01 0.01 0.01 0.01 0.01 0.01
0.00 0.00 0.00 0.00 0.00 0.00 0.01 0.01 0.01 0.01 0.01 0.02 0.02 0.03 0.05 0.07 0.07 0.10 0.13 0.20 0.31 0.38 0.44 0.37 0.29 0.23 0.19 0.15 0.14 0.13 0.11 0.07 0.06 0.04 0.03 0.02 0.02 0.02 0.01 0.00 0.00 0.00 0.01 0.01 0.01 0.01 0.01 0.01 0.01
0.00 0.00 0.00 0.00 0.00 0.00 0.01 0.01 0.01 0.01 0.01 0.02 0.02 0.02 0.03 0.05 0.05 0.07 0.10 0.19 0.27 0.38 0.41 0.36 0.29 0.26 0.23 0.18 0.17 0.16 0.13 0.12 0.09 0.06 0.04 0.03 0.03 0.01 0.01 0.00 0.00 0.00 0.00 0.00 0.00 0.01 0.01 0.01 0.01
0.00 0.00 0.00 0.00 0.00 0.00 0.00 0.01 0.01 0.01 0.01 0.01 0.01 0.02 0.02 0.03 0.03 0.04 0.05 0.11 0.22 0.35 0.41 0.34 0.26 0.22 0.23 0.22 0.18 0.16 0.13 0.11 0.06 0.04 0.03 0.03 0.02 0.02 0.01 0.00 0.00 0.00 0.00 0.00 0.00 0.01 0.01 0.01 0.01
0.00 0.00 0.00 0.00 0.00 0.00 0.00 0.00 0.00 0.00 0.00 0.01 0.01 0.01 0.01 0.02 0.03 0.03 0.03 0.06 0.14 0.29 0.32 0.32 0.26 0.18 0.17 0.17 0.15 0.10 0.07 0.06 0.04 0.03 0.03 0.02 0.02 0.02 0.01 0.01 0.01 0.00 0.00 0.00 0.00 0.00 0.01 0.01 0.01
0.00 0.00 0.00 0.00 0.00 0.00 0.00 0.00 0.00 0.00 0.00 0.00 0.01 0.01 0.01 0.02 0.03 0.03 0.03 0.06 0.13 0.26 0.29 0.28 0.26 0.19 0.16 0.13 0.12 0.10 0.08 0.06 0.05 0.05 0.04 0.02 0.01 0.00 0.01 0.01 0.01 0.00 0.00 0.00 0.00 0.00 0.00 0.00 0.00
0.00 0.00 0.00 0.00 0.00 0.00 0.00 0.00 0.00 0.00 0.00 0.00 0.00 0.00 0.00 0.00 0.02 0.03 0.03 0.07 0.14 0.20 0.23 0.24 0.21 0.19 0.15 0.13 0.13 0.12 0.09 0.07 0.05 0.04 0.03 0.02 0.01 0.00 0.00 0.00 0.00 0.00 0.00 0.00 0.00 0.00 0.00 0.00 0.00
0.00 0.00 0.00 0.00 0.00 0.00 0.00 0.00 0.00 0.00 0.00 0.00 0.00 0.00 0.00 0.00 0.01 0.02 0.02 0.05 0.10 0.11 0.15 0.16 0.17 0.14 0.10 0.10 0.12 0.12 0.10 0.07 0.05 0.04 0.03 0.03 0.01 0.01 0.01 0.00 0.00 0.00 0.00 0.00 0.00 0.00 0.00 0.00 0.00
0.00 0.00 0.00 0.00 0.00 0.00 0.00 0.00 0.00 0.00 0.00 0.00 0.00 0.00 0.00 0.00 0.01 0.02 0.02 0.02 0.05 0.04 0.08 0.08 0.09 0.10 0.09 0.10 0.12 0.12 0.08 0.06 0.04 0.03 0.03 0.02 0.01 0.01 0.01 0.00 0.00 0.00 0.00 0.00 0.00 0.00 0.00 0.00 0.00
0.00 0.00 0.00 0.00 0.00 0.00 0.00 0.00 0.00 0.00 0.00 0.00 0.00 0.00 0.00 0.00 0.01 0.02 0.01 0.01 0.03 0.05 0.05 0.04 0.05 0.07 0.08 0.08 0.11 0.12 0.08 0.05 0.03 0.02 0.02 0.02 0.01 0.01 0.01 0.00 0.00 0.00 0.00 0.00 0.00 0.00 0.00 0.00 0.00
0.00 0.00 0.00 0.01 0.01 0.01 0.00 0.00 0.00 0.00 0.00 0.00 0.00 0.00 0.00 0.00 0.01 0.02 0.02 0.02 0.03 0.05 0.06 0.07 0.07 0.07 0.07 0.08 0.06 0.05 0.05 0.04 0.03 0.03 0.02 0.02 0.01 0.01 0.01 0.01 0.01 0.00 0.00 0.00 0.00 0.00 0.01 0.01 0.00
0.00 0.00 0.00 0.01 0.01 0.01 0.01 0.01 0.00 0.00 0.00 0.00 0.00 0.00 0.00 0.00 0.01 0.01 0.01 0.01 0.02 0.03 0.05 0.07 0.07 0.07 0.06 0.07 0.06 0.05 0.03 0.03 0.03 0.02 0.01 0.02 0.01 0.01 0.01 0.01 0.01 0.01 0.00 0.00 0.00 0.00 0.01 0.01 0.01
0.00 0.00 0.01 0.01 0.01 0.01 0.01 0.00 0.00 0.00 0.00 0.00 0.00 0.01 0.01 0.00 0.01 0.01 0.01 0.02 0.03 0.04 0.04 0.06 0.08 0.08 0.07 0.07 0.07 0.05 0.04 0.03 0.02 0.01 0.02 0.02 0.02 0.02 0.02 0.01 0.01 0.01 0.01 0.01 0.01 0.01 0.01 0.01 0.01
MSLP
1009.30 1010.35 1011.43 1012.38 1013.04 1013.33 1013.25 1012.86 1012.31 1011.72 1011.23 1010.92 1010.82 1010.88 1011.04 1011.20 1011.29 1011.27 1011.15 1010.97 1010.82 1010.75 1010.81 1011.04 1011.41 1011.86 1012.33 1012.76 1013.10 1013.35 1013.50 1013.60 1013.69 1013.80 1013.96 1014.18 1014.43 1014.70 1014.94 1015.15 1015.30 1015.40 1015.45 1015.49 1015.51 1015.54 1015.58 1015.63 1015.68
1009.77 1010.93 1012.04 1012.93 1013.46 1013.57 1013.28 1012.68 1011.92 1011.17 1010.57 1010.18 1010.04 1010.09 1010.25 1010.44 1010.57 1010.60 1010.54 1010.44 1010.36 1010.38 1010.54 1010.85 1011.29 1011.81 1012.34 1012.83 1013.22 1013.52 1013.72 1013.87 1014.00 1014.15 1014.33 1014.54 1014.77 1015.00 1015.19 1015.35 1015.45 1015.52 1015.57 1015.60 1015.64 1015.70 1015.76 1015.82 1015.88
1010.34 1011.54 1012.62 1013.40 1013.76 1013.67 1013.17 1012.39 1011.49 1010.64 1009.98 1009.57 1009.42 1009.48 1009.66 1009.86 1010.01 1010.06 1010.05 1010.00 1009.99 1010.07 1010.31 1010.69 1011.19 1011.76 1012.33 1012.85 1013.29 1013.62 1013.87 1014.07 1014.25 1014.43 1014.63 1014.84 1015.05 1015.25 1015.40 1015.51 1015.58 1015.63 1015.67 1015.72 1015.78 1015.86 1015.94 1016.03 1016.10
1010.98 1012.15 1013.12 1013.74 1013.90 1013.61 1012.94 1012.03 1011.05 1010.17 1009.51 1009.12 1009.00 1009.09 1009.28 1009.49 1009.64 1009.71 1009.71 1009.69 1009.72 1009.86 1010.15 1010.58 1011.12 1011.72 1012.31 1012.85 1013.30 1013.66 1013.94 1014.17 1014.39 1014.61 1014.83 1015.06 1015.27 1015.44 1015.58 1015.67 1015.73 1015.77 1015.82 1015.88 1015.96 1016.06 1016.17 1016.26 1016.35
1011.62 1012.71 1013.52 1013.93 1013.89 1013.41 1012.61 1011.62 1010.62 1009.76 1009.16 1008.84 1008.78 1008.90 1009.11 1009.32 1009.45 1009.51 1009.52 1009.52 1009.58 1009.77 1010.09 1010.56 1011.12 1011.72 1012.31 1012.83 1013.27 1013.63 1013.93 1014.18 1014.43 1014.69 1014.95 1015.20 1015.43 1015.61 1015.75 1015.85 1015.91 1015.97 1016.03 1016.11 1016.21 1016.32 1016.44 1016.54 1016.63
1012.21 1013.14 1013.75 1013.94 1013.69 1013.06 1012.16 1011.14 1010.18 1009.40 1008.89 1008.66 1008.67 1008.84 1009.06 1009.26 1009.39 1009.43 1009.44 1009.46 1009.56 1009.78 1010.14 1010.62 1011.19 1011.77 1012.33 1012.82 1013.24 1013.58 1013.87 1014.14 1014.42 1014.71 1015.01 1015.30 1015.56 1015.78 1015.94 1016.06 1016.14 1016.22 1016.30 1016.40 1016.51 1016.63 1016.75 1016.84 1016.93
1012.64 1013.38 1013.75 1013.72 1013.28 1012.53 1011.57 1010.58 1009.68 1009.02 1008.63 1008.50 1008.59 1008.79 1009.03 1009.23 1009.35 1009.40 1009.42 1009.48 1009.62 1009.89 1010.28 1010.78 1011.33 1011.89 1012.41 1012.86 1013.22 1013.54 1013.81 1014.09 1014.39 1014.72 1015.06 1015.39 1015.70 1015.95 1016.15 1016.30 1016.41 1016.51 1016.61 1016.72 1016.84 1016.96 1017.06 1017.14 1017.20
1012.85 1013.37 1013.52 1013.27 1012.68 1011.82 1010.85 1009.90 1009.11 1008.56 1008.29 1008.26 1008.41 1008.66 1008.92 1009.13 1009.26 1009.34 1009.41 1009.53 1009.73 1010.05 1010.49 1011.00 1011.55 1012.08 1012.55 1012.94 1013.27 1013.54 1013.80 1014.09 1014.40 1014.76 1015.14 1015.51 1015.86 1016.15 1016.38 1016.55 1016.69 1016.81 1016.92 1017.03 1017.15 1017.25 1017.34 1017.39 1017.43
1012.80 1013.10 1013.04 1012.61 1011.89 1010.98 1010.02 1009.13 1008.43 1007.99 1007.82 1007.87 1008.08 1008.37 1008.66 1008.90 1009.08 1009.22 1009.37 1009.57 1009.86 1010.25 1010.73 1011.27 1011.81 1012.31 1012.74 1013.09 1013.37 1013.61 1013.86 1014.14 1014.48 1014.86 1015.26 1015.67 1016.04 1016.35 1016.60 1016.79 1016.94 1017.06 1017.18 1017.30 1017.41 1017.50 1017.57 1017.61 1017.63
1012.52 1012.63 1012.38 1011.81 1011.00 1010.06 1009.11 1008.29 1007.67 1007.32 1007.22 1007.33 1007.59 1007.91 1008.24 1008.54 1008.80 1009.03 1009.29 1009.60 1009.98 1010.45 1010.99 1011.55 1012.08 1012.56 1012.95 1013.26 1013.51 1013.74 1013.98 1014.26 1014.61 1015.00 1015.43 1015.84 1016.22 1016.54 1016.79 1016.98 1017.13 1017.26 1017.38 1017.49 1017.60 1017.69 1017.76 1017.79 1017.80
1012.09 1012.04 1011.64 1010.97 1010.10 1009.15 1008.23 1007.46 1006.90 1006.60 1006.54 1006.69 1006.98 1007.34 1007.73 1008.10 1008.46 1008.81 1009.19 1009.62 1010.11 1010.65 1011.23 1011.80 1012.32 1012.78 1013.14 1013.42 1013.66 1013.88 1014.12 1014.41 1014.77 1015.17 1015.60 1016.01 1016.38 1016.70 1016.94 1017.12 1017.27 1017.39 1017.51 1017.63 1017.75 1017.85 1017.93 1017.98 1017.99
1011.63 1011.45 1010.95 1010.21 1009.31 1008.36 1007.47 1006.73 1006.21 1005.93 1005.89 1006.05 1006.36 1006.76 1007.21 1007.68 1008.15 1008.62 1009.12 1009.66 1010.23 1010.82 1011.42 1011.99 1012.50 1012.92 1013.27 1013.54 1013.77 1014.00 1014.25 1014.56 1014.92 1015.32 1015.74 1016.14 1016.50 1016.80 1017.03 1017.21 1017.35 1017.48 1017.60 1017.74 1017.88 1018.02 1018.12 1018.20 1018.24
1011.26 1010.99 1010.43 1009.66 1008.76 1007.82 1006.95 1006.23 1005.71 1005.43 1005.38 1005.53 1005.85 1006.29 1006.80 1007.36 1007.94 1008.53 1009.13 1009.74 1010.36 1010.97 1011.56 1012.10 1012.58 1012.98 1013.31 1013.58 1013.83 1014.07 1014.35 1014.67 1015.03 1015.43 1015.84 1016.22 1016.57 1016.85 1017.08 1017.25 1017.40 1017.55 1017.70 1017.86 1018.04 1018.22 1018.37 1018.48 1018.56
1011.09 1010.76 1010.18 1009.41 1008.52 1007.62 1006.77 1006.05 1005.52 1005.21 1005.13 1005.26 1005.58 1006.05 1006.62 1007.25 1007.91 1008.58 1009.25 1009.89 1010.51 1011.09 1011.64 1012.13 1012.56 1012.93 1013.25 1013.54 1013.81 1014.09 1014.40 1014.73 1015.10 1015.49 1015.88 1016.25 1016.58 1016.86 1017.09 1017.29 1017.46 1017.64 1017.83 1018.03 1018.25 1018.47 1018.68 1018.84 1018.95
1011.15 1010.80 1010.22 1009.47 1008.63 1007.76 1006.94 1006.22 1005.67 1005.32 1005.20 1005.31 1005.62 1006.09 1006.70 1007.38 1008.09 1008.80 1009.48 1010.10 1010.67 1011.19 1011.65 1012.07 1012.45 1012.80 1013.13 1013.45 1013.76 1014.09 1014.42 1014.78 1015.15 1015.53 1015.90 1016.25 1016.57 1016.86 1017.11 1017.34 1017.56 1017.78 1018.02 1018.27 1018.53 1018.79 1019.03 1019.24 1019.39
1011.40 1011.05 1010.50 1009.82 1009.04 1008.23 1007.44 1006.73 1006.16 1005.77 1005.61 1005.67 1005.95 1006.42 1007.04 1007.74 1008.46 1009.15 1009.79 1010.35 1010.82 1011.24 1011.60 1011.94 1012.28 1012.62 1012.98 1013.35 1013.72 1014.10 1014.47 1014.85 1015.21 1015.57 1015.92 1016.25 1016.57 1016.88 1017.17 1017.44 1017.72 1017.99 1018.27 1018.56 1018.85 1019.14 1019.41 1019.64 1019.81
1011.74 1011.41 1010.94 1010.34 1009.67 1008.94 1008.20 1007.51 1006.92 1006.50 1006.28 1006.29 1006.53 1006.97 1007.57 1008.24 1008.93 1009.57 1010.13 1010.58 1010.94 1011.24 1011.50 1011.77 1012.08 1012.44 1012.84 1013.28 1013.73 1014.17 1014.59 1014.98 1015.33 1015.67 1015.99 1016.30 1016.62 1016.95 1017.27 1017.60 1017.93 1018.25 1018.57 1018.88 1019.19 1019.48 1019.76 1020.00 1020.19
1012.04 1011.78 1011.41 1010.94 1010.39 1009.77 1009.11 1008.45 1007.86 1007.39 1007.11 1007.06 1007.24 1007.63 1008.17 1008.79 1009.41 1009.97 1010.42 1010.75 1010.99 1011.17 1011.35 1011.57 1011.88 1012.28 1012.75 1013.28 1013.82 1014.33 1014.79 1015.20 1015.54 1015.84 1016.13 1016.42 1016.73 1017.07 1017.43 1017.80 1018.18 1018.54 1018.88 1019.20 1019.50 1019.78 1020.04 1020.27 1020.47
1012.19 1012.02 1011.80 1011.50 1011.11 1010.62 1010.05 1009.44 1008.84 1008.33 1007.99 1007.85 1007.95 1008.26 1008.73 1009.27 1009.81 1010.27 1010.61 1010.83 1010.96 1011.05 1011.16 1011.37 1011.70 1012.16 1012.72 1013.35 1013.99 1014.58 1015.09 1015.50 1015.83 1016.10 1016.34 1016.60 1016.90 1017.24 1017.62 1018.03 1018.44 1018.82 1019.17 1019.49 1019.76 1020.01 1020.24 1020.45 1020.65
1012.11 1012.08 1012.04 1011.94 1011.74 1011.40 1010.94 1010.37 1009.76 1009.20 1008.78 1008.55 1008.55 1008.76 1009.14 1009.59 1010.04 1010.41 1010.66 1010.79 1010.84 1010.87 1010.96 1011.17 1011.54 1012.08 1012.75 1013.48 1014.21 1014.88 1015.43 1015.86 1016.17 1016.40 1016.61 1016.83 1017.10 1017.44 1017.83 1018.25 1018.68 1019.07 1019.41 1019.70 1019.94 1020.15 1020.34 1020.53 1020.72
1011.81 1011.96 1012.13 1012.25 1012.25 1012.08 1011.72 1011.18 1010.56 1009.93 1009.40 1009.06 1008.95 1009.05 1009.33 1009.71 1010.08 1010.38 1010.57 1010.65 1010.66 1010.67 1010.75 1010.99 1011.42 1012.04 1012.80 1013.63 1014.44 1015.18 1015.77 1016.20 1016.50 1016.70 1016.87 1017.05 1017.30 1017.62 1018.01 1018.44 1018.86 1019.25 1019.57 1019.83 1020.04 1020.21 1020.36 1020.53 1020.72
1011.37 1011.73 1012.13 1012.48 1012.68 1012.65 1012.37 1011.86 1011.19 1010.48 1009.84 1009.37 1009.13 1009.13 1009.32 1009.63 1009.95 1010.23 1010.40 1010.47 1010.47 1010.49 1010.60 1010.87 1011.35 1012.03 1012.85 1013.75 1014.63 1015.40 1016.02 1016.47 1016.75 1016.93 1017.07 1017.23 1017.45 1017.76 1018.13 1018.55 1018.97 1019.34 1019.65 1019.88 1020.05 1020.19 1020.32 1020.48 1020.68
1010.91 1011.48 1012.12 1012.68 1013.06 1013.16 1012.93 1012.41 1011.68 1010.86 1010.09 1009.48 1009.12 1009.02 1009.15 1009.41 1009.73 1010.01 1010.21 1010.30 1010.34 1010.39 1010.53 1010.83 1011.34 1012.05 1012.90 1013.82 1014.72 1015.52 1016.15 1016.60 1016.88 1017.05 1017.18 1017.32 1017.53 1017.82 1018.18 1018.59 1018.99 1019.35 1019.64 1019.85 1020.00 1020.12 1020.25 1020.41 1020.61
1010.56 1011.34 1012.17 1012.92 1013.44 1013.61 1013.41 1012.86 1012.04 1011.10 1010.20 1009.47 1009.00 1008.82 1008.90 1009.15 1009.49 1009.82 1010.07 1010.23 1010.33 1010.42 1010.58 1010.90 1011.40 1012.09 1012.92 1013.83 1014.71 1015.50 1016.13 1016.58 1016.87 1017.05 1017.17 1017.32 1017.52 1017.80 1018.15 1018.54 1018.93 1019.27 1019.55 1019.76 1019.90 1020.02 1020.15 1020.32 1020.54
1010.40 1011.34 1012.34 1013.22 1013.82 1014.03 1013.82 1013.20 1012.29 1011.23 1010.21 1009.37 1008.82 1008.59 1008.65 1008.92 1009.31 1009.71 1010.05 1010.29 1010.45 1010.59 1010.77 1011.07 1011.54 1012.17 1012.94 1013.78 1014.62 1015.36 1015.97 1016.42 1016.72 1016.91 1017.06 1017.21 1017.42 1017.70 1018.04 1018.42 1018.79 1019.13 1019.40 1019.61 1019.77 1019.90 1020.05 1020.23 1020.47
1010.44 1011.51 1012.60 1013.55 1014.17 1014.38 1014.12 1013.43 1012.43 1011.28 1010.16 1009.25 1008.64 1008.39 1008.45 1008.77 1009.23 1009.72 1010.15 1010.47 1010.70 1010.88 1011.07 1011.34 1011.74 1012.29 1012.96 1013.71 1014.46 1015.14 1015.72 1016.16 1016.46 1016.68 1016.85 1017.03 1017.25 1017.54 1017.87 1018.24 1018.60 1018.93 1019.20 1019.42 1019.59 1019.75 1019.92 1020.13 1020.39
1010.63 1011.76 1012.88 1013.82 1014.43 1014.58 1014.26 1013.50 1012.43 1011.22 1010.06 1009.11 1008.49 1008.24 1008.34 1008.71 1009.24 1009.82 1010.33 1010.74 1011.03 1011.24 1011.42 1011.65 1011.98 1012.42 1012.98 1013.61 1014.27 1014.88 1015.41 1015.83 1016.14 1016.38 1016.58 1016.79 1017.03 1017.31 1017.64 1018.00 1018.35 1018.67 1018.95 1019.18 1019.38 1019.56 1019.76 1020.00 1020.27
1010.88 1011.99 1013.07 1013.96 1014.49 1014.57 1014.18 1013.37 1012.26 1011.04 1009.87 1008.94 1008.34 1008.13 1008.27 1008.70 1009.29 1009.94 1010.52 1010.99 1011.33 1011.57 1011.75 1011.94 1012.19 1012.54 1012.99 1013.51 1014.06 1014.60 1015.08 1015.47 1015.79 1016.05 1016.27 1016.49 1016.75 1017.03 1017.36 1017.70 1018.04 1018.35 1018.63 1018.88 1019.10 1019.31 1019.54 1019.80 1020.08
1011.07 1012.10 1013.08 1013.84 1014.26 1014.25 1013.81 1012.97 1011.88 1010.69 1009.59 1008.72 1008.18 1008.02 1008.21 1008.67 1009.31 1009.99 1010.61 1011.12 1011.50 1011.75 1011.93 1012.10 1012.31 1012.59 1012.95 1013.38 1013.85 1014.31 1014.74 1015.11 1015.42 1015.68 1015.91 1016.15 1016.40 1016.68 1017.00 1017.32 1017.65 1017.95 1018.24 1018.50 1018.74 1018.98 1019.23 1019.51 1019.81
1011.13 1012.01 1012.83 1013.43 1013.72 1013.62 1013.14 1012.32 1011.28 1010.18 1009.18 1008.41 1007.96 1007.86 1008.09 1008.57 1009.21 1009.89 1010.52 1011.04 1011.43 1011.71 1011.91 1012.08 1012.27 1012.52 1012.83 1013.20 1013.61 1014.02 1014.40 1014.74 1015.03 1015.28 1015.51 1015.74 1015.98 1016.25 1016.55 1016.85 1017.16 1017.46 1017.74 1018.01 1018.27 1018.53 1018.81 1019.11 1019.42
Thickness
5802 5800 5796 5786 5767 5751 5751 5763 5773 5776 5781 5790 5793 5788 5781 5774 5768 5766 5788 5797 5795 5789 5784 5781 5779 5777 5775 5773 5772 5770 5769 5769 5768 5767 5766 5765 5764 5763 5761 5760 5758 5757 5756 5754 5753 5752 5751 5750 5749
5802 5798 5789 5776 5755 5741 5752 5770 5774 5782 5790 5794 5793 5789 5783 5781 5786 5785 5789 5793 5792 5788 5783 5780 5777 5775 5773 5771 5770 5769 5767 5767 5766 5765 5764 5762 5761 5760 5759 5757 5756 5754 5753 5752 5751 5750 5749 5748 5747
5802 5797 5778 5763 5752 5747 5760 5777 5782 5792 5797 5793 5787 5789 5784 5782 5787 5788 5792 5792 5789 5785 5781 5779 5776 5773 5771 5769 5768 5766 5766 5765 5763 5762 5761 5760 5759 5757 5756 5755 5753 5752 5751 5749 5748 5748 5747 5746 5745
5797 5784 5772 5756 5751 5764 5776 5786 5791 5790 5792 5794 5788 5781 5786 5793 5792 5792 5793 5790 5786 5782 5779 5777 5774 5771 5769 5767 5765 5764 5763 5762 5761 5760 5758 5757 5756 5754 5753 5752 5750 5749 5748 5747 5746 5745 5744 5743 5743
5791 5773 5756 5745 5753 5773 5789 5797 5797 5789 5788 5790 5787 5778 5780 5791 5796 5794 5790 5787 5783 5779 5777 5775 5772 5769 5767 5765 5763 5762 5761 5760 5759 5757 5756 5754 5752 5751 5750 5749 5747 5746 5745 5744 5743 5742 5742 5741 5740
5775 5763 5744 5740 5756 5779 5794 5801 5798 5790 5789 5789 5785 5776 5776 5787 5789 5788 5786 5783 5780 5776 5773 5771 5768 5766 5764 5763 5762 5760 5759 5757 5756 5755 5753 5751 5750 5748 5746 5745 5744 5743 5742 5741 5740 5740 5739 5739 5738
5769 5755 5746 5750 5758 5774 5793 5802 5795 5789 5786 5788 5790 5774 5774 5780 5784 5785 5782 5779 5775 5773 5770 5767 5765 5763 5761 5761 5760 5758 5757 5755 5754 5752 5750 5749 5747 5745 5743 5742 5742 5740 5739 5739 5738 5737 5736 5736 5736
5778 5758 5751 5751 5759 5773 5794 5798 5799 5792 5788 5797 5792 5774 5770 5778 5781 5779 5775 5772 5769 5767 5766 5763 5761 5760 5759 5758 5757 5756 5755 5752 5751 5750 5748 5746 5745 5743 5741 5739 5739 5738 5737 5736 5735 5734 5734 5733 5733
5781 5752 5743 5755 5764 5777 5793 5792 5796 5801 5793 5791 5791 5786 5786 5783 5778 5772 5767 5763 5761 5761 5760 5759 5758 5756 5755 5754 5754 5753 5752 5750 5748 5747 5746 5744 5742 5740 5738 5736 5736 5735 5734 5734 5733 5732 5731 5730 5730
5770 5747 5756 5775 5782 5786 5793 5792 5791 5789 5782 5781 5782 5784 5785 5779 5773 5767 5763 5760 5757 5756 5755 5755 5754 5753 5752 5751 5750 5749 5749 5747 5746 5744 5743 5741 5740 5737 5735 5734 5733 5732 5732 5731 5730 5729 5728 5727 5727
5770 5763 5776 5787 5794 5795 5792 5792 5795 5783 5774 5781 5781 5780 5778 5773 5768 5765 5762 5760 5757 5755 5753 5751 5751 5750 5749 5748 5747 5746 5745 5744 5743 5742 5740 5738 5737 5735 5733 5731 5730 5729 5729 5728 5727 5727 5726 5725 5724
5773 5779 5786 5792 5799 5796 5793 5793 5789 5785 5787 5796 5793 5786 5779 5771 5765 5762 5759 5756 5754 5751 5750 5748 5747 5746 5745 5745 5743 5742 5742 5741 5740 5739 5738 5736 5734 5733 5731 5729 5727 5726 5726 5725 5725 5724 5724 5723 5722
5776 5782 5792 5797 5798 5797 5795 5790 5788 5786 5794 5796 5790 5782 5775 5770 5764 5759 5756 5752 5749 5747 5746 5744 5744 5743 5742 5741 5740 5739 5739 5738 5738 5737 5736 5734 5732 5730 5728 5726 5725 5724 5723 5723 5722 5722 5722 5721 5720
5783 5787 5791 5795 5797 5798 5792 5788 5785 5785 5791 5787 5781 5775 5772 5767 5761 5755 5750 5747 5745 5743 5741 5741 5740 5740 5740 5739 5738 5736 5736 5736 5735 5734 5733 5732 5731 5729 5727 5725 5723 5722 5721 5721 5720 5720 5720 5719 5718
5786 5780 5782 5790 5795 5795 5791 5778 5781 5788 5786 5779 5775 5771 5767 5763 5759 5754 5750 5746 5743 5741 5739 5738 5737 5737 5737 5736 5735 5734 5734 5733 5732 5732 5731 5730 5729 5728 5725 5723 5721 5720 5720 5719 5719 5718 5718 5717 5717
5776 5766 5761 5780 5789 5791 5782 5766 5783 5787 5780 5772 5770 5767 5761 5758 5755 5752 5749 5745 5742 5738 5736 5735 5736 5734 5734 5734 5733 5732 5732 5731 5730 5730 5729 5728 5727 5726 5724 5722 5720 5719 5718 5718 5717 5717 5716 5715 5714
5751 5745 5752 5767 5785 5785 5777 5767 5779 5782 5777 5769 5766 5762 5757 5752 5750 5748 5746 5743 5740 5738 5735 5733 5733 5732 5732 5731 5731 5730 5729 5729 5728 5728 5727 5726 5725 5724 5723 5722 5720 5718 5717 5716 5716 5714 5714 5713 5712
5741 5745 5749 5755 5776 5778 5770 5766 5774 5776 5774 5768 5763 5759 5754 5749 5747 5747 5743 5740 5737 5735 5734 5732 5730 5730 5730 5728 5727 5726 5726 5726 5726 5725 5725 5725 5723 5722 5722 5720 5718 5717 5716 5714 5714 5713 5712 5711 5711
5753 5749 5745 5759 5777 5771 5765 5763 5768 5771 5768 5764 5760 5756 5751 5749 5748 5746 5742 5739 5735 5732 5731 5730 5729 5728 5727 5725 5724 5722 5722 5723 5723 5724 5724 5724 5722 5721 5721 5719 5717 5716 5714 5714 5713 5712 5711 5710 5710
5751 5745 5747 5761 5773 5768 5760 5760 5767 5768 5765 5764 5760 5756 5753 5749 5745 5743 5740 5737 5735 5732 5731 5730 5729 5727 5727 5726 5725 5723 5722 5721 5721 5722 5722 5722 5721 5720 5719 5719 5716 5715 5713 5712 5712 5712 5710 5709 5708
5750 5747 5749 5753 5762 5761 5755 5751 5757 5764 5765 5764 5762 5759 5755 5750 5746 5743 5740 5737 5735 5732 5730 5731 5728 5726 5726 5725 5723 5721 5719 5718 5717 5718 5719 5720 5720 5719 5719 5718 5716 5715 5713 5712 5712 5712 5711 5708 5707
5744 5762 5760 5757 5744 5734 5742 5724 5746 5753 5754 5757 5757 5756 5753 5752 5749 5745 5742 5738 5736 5734 5731 5729 5727 5725 5724 5724 5722 5720 5719 5717 5717 5718 5718 5719 5719 5718 5718 5717 5716 5715 5714 5713 5712 5712 5712 5710 5707
5758 5766 5759 5753 5741 5730 5732 5722 5733 5747 5747 5752 5756 5757 5756 5754 5751 5748 5744 5742 5739 5736 5733 5729 5725 5723 5723 5722 5721 5720 5719 5718 5717 5717 5717 5717 5717 5717 5717 5716 5715 5715 5714 5713 5713 5712 5712 5711 5709
5768 5756 5745 5732 5724 5715 5726 5719 5725 5739 5749 5754 5757 5758 5758 5756 5753 5750 5746 5743 5739 5737 5734 5729 5725 5723 5722 5721 5720 5720 5718 5717 5715 5715 5714 5714 5714 5715 5715 5715 5714 5714 5713 5713 5712 5712 5712 5711 5710
5758 5732 5710 5708 5700 5706 5723 5719 5727 5754 5760 5759 5758 5758 5759 5758 5754 5750 5746 5742 5738 5736 5734 5731 5727 5723 5722 5721 5720 5720 5719 5718 5717 5716 5715 5713 5713 5714 5714 5715 5714 5713 5713 5712 5712 5711 5711 5710 5710
5748 5735 5708 5698 5695 5704 5718 5717 5742 5764 5766 5765 5763 5761 5760 5757 5755 5752 5748 5743 5740 5739 5735 5732 5729 5725 5724 5723 5722 5721 5720 5719 5718 5718 5717 5716 5716 5716 5715 5714 5714 5713 5712 5712 5711 5711 5710 5709 5709
5743 5733 5736 5711 5706 5701 5710 5726 5747 5764 5762 5762 5761 5759 5758 5757 5755 5753 5750 5746 5743 5740 5738 5736 5732 5728 5726 5725 5724 5723 5722 5720 5719 5718 5718 5717 5716 5716 5715 5714 5713 5712 5712 5711 5710 5709 5708 5708 5707
5755 5738 5718 5707 5695 5692 5708 5718 5730 5752 5755 5757 5757 5756 5757 5756 5755 5753 5750 5748 5746 5744 5741 5737 5735 5731 5729 5727 5726 5725 5723 5722 5720 5718 5717 5716 5716 5715 5714 5713 5713 5712 5711 5710 5709 5708 5707 5705 5704
5739 5731 5720 5705 5704 5694 5694 5715 5752 5756 5759 5758 5757 5757 5756 5754 5753 5752 5751 5749 5747 5744 5740 5737 5735 5732 5730 5729 5727 5725 5724 5722 5721 5719 5718 5717 5716 5715 5713 5713 5712 5710 5710 5709 5707 5706 5705 5703 5702
5744 5733 5718 5708 5704 5699 5697 5718 5762 5761 5761 5760 5757 5757 5757 5755 5754 5752 5751 5748 5745 5743 5741 5738 5736 5734 5732 5730 5727 5726 5724 5722 5720 5720 5719 5718 5716 5715 5713 5712 5710 5709 5708 5707 5706 5704 5703 5701 5700